• In Hungary
  • List of Countries
  • For 7 days
  • Water Temperature
  • Satellite Maps
  • Weather Map
  • News
  • Weather Widgets
  • user-avatar
    Login

    Hourly Weather Kollo

    Today, 23 October, Tuesday

    Time Temperature Precipitation Wind Pressure Humidity
    00:00 +31°C° 0 mm 2 mps 739 mmHg 12%
    01:00 +31°C° 0 mm 2 mps 739 mmHg 13%
    02:00 +30°C° 0 mm 2 mps 739 mmHg 13%
    03:00 +29°C° 0 mm 1 mps 739 mmHg 14%
    04:00 +29°C° 0 mm 1 mps 739 mmHg 15%
    05:00 +28°C° 0 mm 1 mps 739 mmHg 17%
    06:00 +28°C° 0 mm 1 mps 739 mmHg 18%
    07:00 +31°C° 0 mm 1 mps 740 mmHg 15%
    08:00 +34°C° 0 mm 1 mps 741 mmHg 12%
    09:00 +38°C° 0 mm 2 mps 741 mmHg 10%
    10:00 +40°C° 0 mm 2 mps 741 mmHg 9%
    11:00 +43°C° 0 mm 3 mps 740 mmHg 8%
    12:00 +44°C° 0 mm 3 mps 740 mmHg 7%
    13:00 +45°C° 0 mm 4 mps 739 mmHg 7%
    14:00 +46°C° 0 mm 5 mps 738 mmHg 7%
    15:00 +46°C° 0 mm 5 mps 738 mmHg 7%
    16:00 +43°C° 0 mm 4 mps 738 mmHg 8%
    17:00 +41°C° 0 mm 4 mps 738 mmHg 9%
    18:00 +38°C° 0 mm 3 mps 738 mmHg 10%
    19:00 +37°C° 0 mm 2 mps 738 mmHg 11%
    20:00 +36°C° 0 mm 2 mps 739 mmHg 12%
    21:00 +35°C° 0 mm 2 mps 739 mmHg 13%
    22:00 +34°C° 0 mm 2 mps 739 mmHg 14%
    23:00 +32°C° 0 mm 1 mps 739 mmHg 14%

    Tomorrow, 24 October, Wednesday

    Time Temperature Precipitation Wind Pressure Humidity
    00:00 +31°C° 0 mm 1 mps 739 mmHg 15%
    01:00 +31°C° 0 mm 1 mps 738 mmHg 16%
    02:00 +30°C° 0 mm 1 mps 738 mmHg 16%
    03:00 +30°C° 0 mm 1 mps 738 mmHg 17%
    04:00 +30°C° 0 mm 1 mps 738 mmHg 17%
    05:00 +30°C° 0 mm 2 mps 738 mmHg 17%
    06:00 +30°C° 0 mm 2 mps 739 mmHg 17%
    07:00 +33°C° 0 mm 3 mps 739 mmHg 16%
    08:00 +36°C° 0 mm 4 mps 740 mmHg 15%
    09:00 +39°C° 0 mm 5 mps 740 mmHg 14%
    10:00 +40°C° 0 mm 3 mps 740 mmHg 12%
    11:00 +41°C° 0 mm 2 mps 739 mmHg 11%
    12:00 +43°C° 0 mm 1 mps 738 mmHg 10%
    13:00 +43°C° 0 mm 1 mps 738 mmHg 9%
    14:00 +45°C° 0 mm 2 mps 737 mmHg 8%
    15:00 +45°C° 0 mm 2 mps 736 mmHg 8%
    16:00 +42°C° 0 mm 2 mps 737 mmHg 9%
    17:00 +40°C° 0 mm 2 mps 737 mmHg 10%
    18:00 +38°C° 0 mm 2 mps 737 mmHg 11%
    19:00 +38°C° 0 mm 2 mps 737 mmHg 11%
    20:00 +37°C° 0 mm 2 mps 738 mmHg 12%
    21:00 +36°C° 0 mm 2 mps 738 mmHg 12%
    22:00 +36°C° 0 mm 2 mps 738 mmHg 14%
    23:00 +35°C° 0 mm 2 mps 738 mmHg 15%

    Day after tomorrow, 25 October, Thursday

    Time Temperature Precipitation Wind Pressure Humidity
    00:00 +34°C° 0 mm 2 mps 738 mmHg 16%
    01:00 +34°C° 0 mm 3 mps 738 mmHg 18%
    02:00 +33°C° 0 mm 3 mps 737 mmHg 20%
    03:00 +31°C° 0 mm 3 mps 737 mmHg 22%
    04:00 +32°C° 0 mm 4 mps 737 mmHg 27%
    05:00 +30°C° 0 mm 4 mps 737 mmHg 32%
    06:00 +30°C° 0 mm 4 mps 738 mmHg 36%
    07:00 +33°C° 0 mm 5 mps 738 mmHg 35%
    08:00 +35°C° 0 mm 5 mps 739 mmHg 34%
    09:00 +39°C° 0 mm 6 mps 740 mmHg 33%
    10:00 +40°C° 0 mm 5 mps 739 mmHg 28%
    11:00 +42°C° 0 mm 4 mps 738 mmHg 24%
    12:00 +44°C° 0 mm 3 mps 738 mmHg 20%
    13:00 +43°C° 0 mm 2 mps 737 mmHg 18%
    14:00 +43°C° 0 mm 2 mps 737 mmHg 15%
    15:00 +44°C° 0 mm 1 mps 736 mmHg 13%
    16:00 +42°C° 0 mm 1 mps 736 mmHg 14%
    17:00 +41°C° 0 mm 1 mps 736 mmHg 15%
    18:00 +39°C° 0 mm 2 mps 736 mmHg 17%
    19:00 +38°C° 0 mm 2 mps 737 mmHg 17%
    20:00 +38°C° 0 mm 2 mps 737 mmHg 17%
    21:00 +37°C° 0 mm 2 mps 738 mmHg 18%
    22:00 +37°C° 0 mm 2 mps 738 mmHg 19%
    23:00 +36°C° 0 mm 2 mps 738 mmHg 20%

    26 October, Friday

    Time Temperature Precipitation Wind Pressure Humidity
    00:00 +36°C° 0 mm 3 mps 737 mmHg 21%
    01:00 +35°C° 0 mm 3 mps 737 mmHg 23%
    02:00 +35°C° 0 mm 3 mps 737 mmHg 25%
    03:00 +34°C° 0 mm 4 mps 737 mmHg 27%
    04:00 +34°C° 0 mm 4 mps 737 mmHg 31%
    05:00 +34°C° 0 mm 5 mps 737 mmHg 34%
    06:00 +33°C° 0 mm 5 mps 738 mmHg 38%
    07:00 +35°C° 0 mm 6 mps 738 mmHg 37%
    08:00 +38°C° 0 mm 6 mps 739 mmHg 37%
    09:00 +39°C° 0 mm 7 mps 739 mmHg 36%
    10:00 +41°C° 0 mm 6 mps 739 mmHg 32%
    11:00 +42°C° 0 mm 5 mps 738 mmHg 28%
    12:00 +45°C° 0 mm 5 mps 738 mmHg 23%
    13:00 +44°C° 0 mm 4 mps 737 mmHg 22%
    14:00 +43°C° 0 mm 3 mps 737 mmHg 21%
    15:00 +42°C° 0 mm 2 mps 736 mmHg 20%
    16:00 +41°C° 0.1 mm 2 mps 737 mmHg 23%
    17:00 +40°C° 0.1 mm 3 mps 737 mmHg 25%
    18:00 +38°C° 0.1 mm 3 mps 737 mmHg 28%
    19:00 +38°C° 0 mm 3 mps 738 mmHg 30%
    20:00 +37°C° 0 mm 3 mps 738 mmHg 32%
    21:00 +36°C° 0 mm 3 mps 739 mmHg 34%
    22:00 +35°C° 0 mm 3 mps 738 mmHg 36%
    23:00 +35°C° 0 mm 3 mps 738 mmHg 37%

    27 October, Saturday

    Time Temperature Precipitation Wind Pressure Humidity
    00:00 +34°C° 0 mm 3 mps 738 mmHg 38%
    01:00 +34°C° 0 mm 3 mps 738 mmHg 40%
    02:00 +34°C° 0 mm 3 mps 738 mmHg 43%
    03:00 +33°C° 0 mm 4 mps 738 mmHg 45%
    04:00 +33°C° 0 mm 4 mps 738 mmHg 47%
    05:00 +32°C° 0 mm 4 mps 739 mmHg 49%
    06:00 +32°C° 0 mm 4 mps 739 mmHg 52%
    07:00 +34°C° 0 mm 4 mps 740 mmHg 46%
    08:00 +36°C° 0 mm 5 mps 740 mmHg 40%
    09:00 +39°C° 0 mm 5 mps 740 mmHg 34%
    10:00 +40°C° 0 mm 5 mps 740 mmHg 31%
    11:00 +41°C° 0 mm 4 mps 739 mmHg 27%
    12:00 +43°C° 0 mm 3 mps 738 mmHg 24%
    13:00 +42°C° 0 mm 2 mps 738 mmHg 23%
    14:00 +42°C° 0 mm 1 mps 737 mmHg 22%
    15:00 +39°C° 0 mm 0 mps 737 mmHg 21%
    16:00 +41°C° 0 mm 1 mps 737 mmHg 22%
    17:00 +40°C° 0 mm 1 mps 737 mmHg 23%
    18:00 +40°C° 0 mm 1 mps 738 mmHg 24%
    19:00 +39°C° 0 mm 1 mps 738 mmHg 25%
    20:00 +37°C° 0 mm 1 mps 739 mmHg 26%
    21:00 +37°C° 0 mm 1 mps 739 mmHg 27%
    22:00 +37°C° 0 mm 2 mps 739 mmHg 29%
    23:00 +37°C° 0 mm 2 mps 738 mmHg 30%

    28 October, Sunday

    Time Temperature Precipitation Wind Pressure Humidity
    00:00 +36°C° 0 mm 2 mps 738 mmHg 31%
    01:00 +36°C° 0 mm 2 mps 738 mmHg 33%
    02:00 +35°C° 0 mm 2 mps 738 mmHg 35%
    03:00 +35°C° 0 mm 2 mps 738 mmHg 37%
    04:00 +35°C° 0 mm 3 mps 738 mmHg 39%
    05:00 +34°C° 0 mm 3 mps 739 mmHg 41%
    06:00 +34°C° 0 mm 3 mps 740 mmHg 43%
    07:00 +35°C° 0 mm 4 mps 740 mmHg 41%
    08:00 +37°C° 0 mm 4 mps 741 mmHg 39%
    09:00 +39°C° 0 mm 5 mps 741 mmHg 37%
    10:00 +40°C° 0 mm 4 mps 740 mmHg 34%
    11:00 +40°C° 0 mm 3 mps 739 mmHg 31%
    12:00 +41°C° 0 mm 2 mps 739 mmHg 28%
    13:00 +41°C° 0 mm 2 mps 738 mmHg 26%
    14:00 +42°C° 0 mm 1 mps 738 mmHg 25%
    15:00 +42°C° 0 mm 1 mps 737 mmHg 23%
    16:00 +41°C° 0 mm 2 mps 738 mmHg 25%
    17:00 +40°C° 0 mm 2 mps 738 mmHg 27%
    18:00 +39°C° 0 mm 3 mps 738 mmHg 29%
    19:00 +38°C° 0 mm 3 mps 738 mmHg 32%
    20:00 +37°C° 0 mm 2 mps 739 mmHg 34%
    21:00 +36°C° 0 mm 2 mps 739 mmHg 37%
    22:00 +36°C° 0 mm 2 mps 739 mmHg 38%
    23:00 +36°C° 0 mm 2 mps 738 mmHg 40%

    29 October, Monday

    Time Temperature Precipitation Wind Pressure Humidity
    00:00 +35°C° 0 mm 3 mps 738 mmHg 41%
    01:00 +35°C° 0 mm 3 mps 738 mmHg 43%
    02:00 +34°C° 0 mm 3 mps 738 mmHg 45%
    03:00 +34°C° 0 mm 4 mps 737 mmHg 46%
    04:00 +34°C° 0 mm 3 mps 738 mmHg 47%
    05:00 +33°C° 0 mm 3 mps 738 mmHg 49%
    06:00 +33°C° 0 mm 3 mps 738 mmHg 50%
    07:00 +35°C° 0 mm 3 mps 739 mmHg 44%
    08:00 +37°C° 0 mm 3 mps 739 mmHg 39%
    09:00 +39°C° 0 mm 3 mps 740 mmHg 34%
    10:00 +40°C° 0 mm 3 mps 739 mmHg 29%
    11:00 +43°C° 0 mm 3 mps 738 mmHg 24%
    12:00 +44°C° 0 mm 3 mps 737 mmHg 20%
    13:00 +44°C° 0 mm 3 mps 737 mmHg 18%
    14:00 +45°C° 0 mm 3 mps 736 mmHg 16%
    15:00 +45°C° 0 mm 3 mps 736 mmHg 14%
    16:00 +42°C° 0 mm 2 mps 736 mmHg 16%
    17:00 +40°C° 0 mm 2 mps 736 mmHg 17%
    18:00 +39°C° 0 mm 1 mps 736 mmHg 18%
    19:00 +39°C° 0 mm 1 mps 736 mmHg 18%
    20:00 +39°C° 0 mm 2 mps 737 mmHg 19%
    21:00 +39°C° 0 mm 2 mps 738 mmHg 19%
    22:00 +38°C° 0 mm 2 mps 738 mmHg 21%
    23:00 +38°C° 0 mm 3 mps 737 mmHg 22%
    Show more